This is the latest recevied weather packets stored in our database for station/object EA2RCU-15. If no packets are shown the sender has not sent any weather packets the latest 10 day(s).
| Time | Temp. | Humidity | Pressure | Rain* | Wind** | Luminosity | Snow |
|---|---|---|---|---|---|---|---|
| 1777991704 | 15.56° C | 59% | 997 hPa | 1.02 mm | - | - | - |
| 1777991404 | 15.56° C | 60% | 997 hPa | 1.02 mm | - | - | - |
| 1777991104 | 15.56° C | 62% | 996 hPa | 1.02 mm | - | - | - |
| 1777990805 | 15.56° C | 64% | 996 hPa | 1.02 mm | - | - | - |
| 1777990504 | 15° C | 66% | 996 hPa | 1.02 mm | - | - | - |
| 1777989906 | 14.44° C | 66% | 997 hPa | 2.03 mm | - | - | - |
| 1777989606 | 14.44° C | 64% | 997 hPa | 2.03 mm | - | - | - |
| 1777989306 | 14.44° C | 60% | 997 hPa | 2.03 mm | - | - | - |
| 1777989006 | 15° C | 57% | 997 hPa | 1.02 mm | - | - | - |
| 1777988707 | 15.56° C | 55% | 997 hPa | 1.02 mm | - | - | - |
| 1777988407 | 16.11° C | 54% | 997 hPa | 1.02 mm | - | - | - |
| 1777988106 | 16.11° C | 54% | 997 hPa | 1.02 mm | - | - | - |
| 1777987807 | 16.67° C | 55% | 997 hPa | 1.02 mm | - | - | - |
| 1777987506 | 16.67° C | 55% | 997 hPa | 1.02 mm | - | - | - |
| 1777987207 | 16.11° C | 54% | 997 hPa | 1.02 mm | - | - | - |
| 1777986906 | 16.11° C | 54% | 997 hPa | 1.02 mm | - | - | - |
| 1777986606 | 16.11° C | 53% | 997 hPa | 0 mm | - | - | - |
| 1777986306 | 16.11° C | 52% | 997 hPa | 0 mm | - | - | - |
| 1777986006 | 16.11° C | 50% | 997 hPa | 0 mm | - | - | - |
| 1777985706 | 16.67° C | 49% | 997 hPa | 0 mm | - | - | - |
| 1777985406 | 16.67° C | 48% | 997 hPa | 0 mm | - | - | - |
| 1777985106 | 17.22° C | 47% | 997 hPa | 0 mm | - | - | - |
| 1777984807 | 17.22° C | 46% | 997 hPa | 0 mm | - | - | - |
| 1777984506 | 17.78° C | 46% | 997 hPa | 0 mm | - | - | - |
| 1777984207 | 18.33° C | 45% | 997 hPa | 1.02 mm | - | - | - |
* Rain latest hour (hover to see other rain measurements)
** Current wind speed in m/s (hover to see current wind gust speed)